Regional Weather Roundup
Issued by NWS Kansas City/Pleasant Hill, MO

Home | Current Version | Previous Version | Text Only | Print | Product List | Glossary On
Versions: 1 2 3 4 5 6 7 8 9 10 11 12 13 14 15 16 17 18 19 20 21 22 23 24 25 26 27 28 29 30 31 32 33 34 35 36 37 38 39 40 41 42 43 44 45 46 47 48 49 50
000
ASUS43 KEAX 110904
RWREAX

WEATHER ROUNDUP FOR EASTERN KANSAS AND NORTHWEST MISSOURI
NATIONAL WEATHER SERVICE KANSAS CITY/PLEASANT HILL MO
400 AM CDT FRI JUL 11 2014

KSZ040-057-103>105-MOZ028-029-037-043-111000-
...KANSAS CITY METROPOLITAN AREA...

CITY           SKY/WX    TMP DP  RH WIND       PRES   REMARKS
K.C. INTL      PTCLDY    69  64  84 S9        30.04F
K.C. DOWNTOWN  CLEAR     71  65  81 S6        30.04S
LEES SUMMIT    CLEAR     68  65  90 S7        30.06S
OLATHE - IXD   MOCLDY    68  65  90 SE9       30.04F
OLATHE - OJC   PTCLDY    67  65  93 SE8       30.04F
LAWRENCE       MOCLDY    69  65  86 SE8       30.02F

$$

MOZ001>008-011>017-020>025-030>033-038>040-044>046-053-054-111000-
...NORTHERN AND CENTRAL MISSOURI...

CITY           SKY/WX    TMP DP  RH WIND       PRES   REMARKS
ST. JOSEPH     CLEAR     68  65  90 SE7       30.03S
MOSBY          SUNNY     68  64  88 SE6       30.05S
WHITEMAN AFB   CLEAR     65  60  82 S3        30.07S
CLINTON        CLEAR     66  64  94 CALM      30.08S
SEDALIA        CLEAR     66  63  90 SE5       30.09S
WARSAW         NOT AVBL
MARSHALL         N/A     68  66  94 E6        30.09F
CHILLICOTHE      N/A     68  61  78 SE6       30.08F
KIRKSVILLE     CLEAR     62  58  86 SE7       30.11F

$$

MOZ041-047>049-056>058-063>065-088>090-097-111000-
...EASTERN AND SOUTHERN MISSOURI...

CITY           SKY/WX    TMP DP  RH WIND       PRES   REMARKS
ST. LOUIS INTL CLEAR     68  58  70 E5        30.14S
SPIRIT OF STL  CLEAR     60  58  92 CALM      30.12S
COLUMBIA       CLEAR     66  62  87 E7        30.11S
JEFFERSON CITY MOCLDY    65  62  90 SE6       30.10S
HANNIBAL       CLEAR     66  54  63 SE6       30.13S
ROLLA          CLEAR     65  62  90 SE8       30.12S
LEBANON        CLEAR     66  64  94 SE6       30.12S
OSAGE BEACH      N/A     66  63  88 CALM      30.10S VSB<1/4
SPRINGFIELD    PTCLDY    69  65  86 S12       30.10S
BRANSON        CLOUDY    68  64  88 SE7       30.13S
NEVADA         MOCLDY    66  66 100 S7        30.08S
JOPLIN         MOCLDY    70  65  84 SE9       30.06F
WEST PLAINS    CLEAR     68  64  87 SE3       30.14F
PIEDMONT       CLEAR     63  61  94 CALM      30.13F FOG

$$

IAZ060-094-KSZ022-034>040-054-083-096-NEZ052-066-093-111000-
...KANSAS...SOUTHEAST NEBRASKA AND IOWA...

CITY           SKY/WX    TMP DP  RH WIND       PRES   REMARKS
TOPEKA         MOCLDY    72  67  84 SE7       30.02S
MANHATTAN      PTCLDY    72  66  81 SE7       29.97F
EMPORIA        PTCLDY    69  65  86 SE17      30.00F
CHANUTE        PTCLDY    70  66  87 SE10      30.03F
WICHITA        PTCLDY    69  66  90 S13       29.98S
OMAHA          MOCLDY    72  64  76 S12       29.99S
LINCOLN        MOCLDY    72  65  78 S8        29.99R
FALLS CITY     MOCLDY    68  65  90 SE8       30.00S
LAMONI         CLEAR     64  59  83 SE9       30.06F
DES MOINES     CLOUDY    68  59  73 S10       30.06S

$$



USA.gov is the U.S. government's official web portal to all federal, state and local government web resources and services.